Weather History for KCSG - March, 2013

Change the Weather History Date:

Tuesday, March 12, 2013

  Actual Average Record
Temperature  
Mean Temperature 53 °F 57 °F  
Max Temperature 65 °F 69 °F 87 °F (1955)
Min Temperature 40 °F 45 °F 24 °F (1969)
Degree Days  
Heating Degree Days 12 9  
Month to date heating degree days 169 118  
Since 1 July heating degree days 1525 1895  
Cooling Degree Days 0 1  
Month to date cooling degree days 0 5  
Year to date cooling degree days 25 9  
Growing Degree Days 2 (Base 50)    
Moisture  
Dew Point 37 °F    
Average Humidity 56    
Maximum Humidity 86    
Minimum Humidity 26    
Precipitation  
Precipitation 0.00 in 0.18 in 2.45 in (1968)
Month to date precipitation 1.09 2.15  
Year to date precipitation 16.78 10.44  
Snow  
Snow 0.00 in 0.00 in 0.00 in (2002)
Month to date snowfall 0.0 0.0  
Since 1 July snowfall 0.0 0.3  
Snow Depth -    
Sea Level Pressure  
Sea Level Pressure 29.98 in    
Wind  
Wind Speed 10 mph (NNW)    
Max Wind Speed 20 mph    
Max Gust Speed 25 mph    
Visibility 10 miles    
Events Rain    
T = Trace of Precipitation, MM = Missing Value Source: NWS Daily Summary

Daily Weather History Graph

Daily Weather History Graph

Search for Another Location

Airport or City:

Trip Planner

Search our weather history database for the weather conditions in past years. The results will help you decide how hot, cold, wet, or windy it might be!

Date:

Astronomy

Mar. 12, 2013 Rise Set
Actual Time 7:53 AM EDT 7:45 PM EDT
Civil Twilight 7:29 AM EDT 8:10 PM EDT
Nautical Twilight 7:00 AM EDT 8:38 PM EDT
Astronomical Twilight 6:31 AM EDT 9:07 PM EDT
Moon 8:04 AM EDT (3/12) 8:53 PM EDT (3/12)
Length of Visible Light 12h 41m
Length of Day
11h 52m
New Moon, 1% of the Moon is Illuminated
Mar 12
New Moon
Mar 19
First Quarter
Mar 27
Full
Apr 3
Last Quarter
Apr 10
New

Hourly Weather History & Observations

Time (EDT) Temp. Windchill Dew Point Humidity Pressure Visibility Wind Dir Wind Speed Gust Speed Precip Events Conditions
12:32 AM 51.8 °F - 48.2 °F 88% 29.88 in 9.0 mi NNW 10.4 mph - 0.01 in Rain Light Rain
12:51 AM 51.1 °F - 48.0 °F 89% 29.87 in 10.0 mi NNW 10.4 mph - 0.01 in   Overcast
1:17 AM 51.8 °F - 46.4 °F 82% 29.88 in 10.0 mi NNW 10.4 mph - N/A   Overcast
1:27 AM 51.8 °F - 46.4 °F 82% 29.88 in 10.0 mi NNW 10.4 mph - N/A   Overcast
1:51 AM 50.0 °F - 46.4 °F 87% 29.89 in 10.0 mi NNW 11.5 mph - N/A   Overcast
2:19 AM 48.2 °F - 46.4 °F 93% 29.89 in 10.0 mi NNW 15.0 mph 19.6 mph N/A   Overcast
2:42 AM 48.2 °F - 42.8 °F 82% 29.90 in 10.0 mi NNW 10.4 mph 20.7 mph N/A   Mostly Cloudy
2:51 AM 48.0 °F - 42.1 °F 80% 29.90 in 10.0 mi North 11.5 mph - N/A   Mostly Cloudy
2:58 AM 48.2 °F - 42.8 °F 82% 29.91 in 10.0 mi NNW 9.2 mph - N/A   Mostly Cloudy
3:15 AM 46.4 °F 40.7 °F 41.0 °F 81% 29.91 in 10.0 mi NNW 12.7 mph 19.6 mph N/A   Scattered Clouds
3:51 AM 45.0 °F 38.9 °F 39.0 °F 80% 29.91 in 10.0 mi North 12.7 mph 19.6 mph N/A   Clear
4:51 AM 44.1 °F 39.5 °F 37.0 °F 76% 29.91 in 10.0 mi NNW 8.1 mph - N/A   Clear
5:51 AM 42.1 °F 37.7 °F 37.0 °F 82% 29.94 in 10.0 mi NNW 6.9 mph - N/A   Clear
6:51 AM 41.0 °F 34.7 °F 36.0 °F 82% 29.96 in 10.0 mi NNW 10.4 mph - N/A   Clear
7:14 AM 41.0 °F 35.8 °F 35.6 °F 81% 29.98 in 10.0 mi NNW 8.1 mph - N/A   Mostly Cloudy
7:51 AM 39.9 °F 35.8 °F 34.0 °F 79% 29.99 in 10.0 mi North 5.8 mph - N/A   Scattered Clouds
8:51 AM 41.0 °F 38.0 °F 33.8 °F 76% 29.99 in 10.0 mi NNW 4.6 mph - N/A   Clear
9:51 AM 43.0 °F 37.7 °F 34.0 °F 71% 30.01 in 10.0 mi NNW 9.2 mph - N/A   Clear
10:51 AM 46.9 °F - 35.1 °F 63% 30.03 in 10.0 mi NNW 10.4 mph - N/A   Clear
11:51 AM 50.0 °F - 35.6 °F 58% 30.04 in 10.0 mi NW 12.7 mph - N/A   Clear
12:51 PM 55.0 °F - 33.1 °F 43% 30.04 in 10.0 mi NW 16.1 mph - N/A   Clear
1:51 PM 59.0 °F - 30.0 °F 33% 30.03 in 10.0 mi North 13.8 mph - N/A   Clear
2:51 PM 62.1 °F - 30.0 °F 30% 30.01 in 10.0 mi NW 12.7 mph - N/A   Clear
3:51 PM 63.0 °F - 28.0 °F 27% 30.00 in 10.0 mi NW 17.3 mph - N/A   Clear
4:51 PM 64.9 °F - 28.0 °F 25% 29.99 in 10.0 mi NW 17.3 mph 20.7 mph N/A   Clear
5:51 PM 64.9 °F - 28.0 °F 25% 30.01 in 10.0 mi NNW 13.8 mph 21.9 mph N/A   Clear
6:51 PM 64.0 °F - 28.9 °F 27% 30.02 in 10.0 mi North 8.1 mph - N/A   Clear
7:51 PM 61.0 °F - 30.9 °F 32% 30.04 in 10.0 mi NNW 6.9 mph - N/A   Clear
8:51 PM 57.9 °F - 32.0 °F 37% 30.07 in 10.0 mi NNW 6.9 mph - N/A   Clear
9:51 PM 55.0 °F - 32.0 °F 42% 30.09 in 10.0 mi NNW 5.8 mph - N/A   Clear
10:51 PM 54.0 °F - 32.0 °F 43% 30.12 in 10.0 mi NNW 6.9 mph - N/A   Clear
11:51 PM 53.1 °F - 30.9 °F 43% 30.13 in 10.0 mi NNW 5.8 mph - N/A   Clear